This is the latest recevied weather packets stored in our database for station/object F4ETJ-1. If no packets are shown the sender has not sent any weather packets the latest 10 day(s).
| Time | Temp. | Humidity | Pressure | Rain* | Wind** | Luminosity | Snow |
|---|---|---|---|---|---|---|---|
| 1777882268 | 14.44° C | 95% | 1009.6 hPa | 0.76 mm | - | - | - |
| 1777881186 | 14.44° C | 95% | 1009.5 hPa | 1.78 mm | - | - | - |
| 1777880826 | 13.89° C | 95% | 1009.5 hPa | 2.03 mm | - | - | - |
| 1777880466 | 13.89° C | 95% | 1009.6 hPa | 2.54 mm | - | - | - |
| 1777879385 | 13.89° C | 95% | 1009.5 hPa | 3.05 mm | - | - | - |
| 1777879024 | 13.89° C | 95% | 1009.5 hPa | 5.08 mm | - | - | - |
| 1777878664 | 13.89° C | 95% | 1009.5 hPa | 6.6 mm | - | - | - |
| 1777878304 | 13.89° C | 95% | 1009.4 hPa | 8.13 mm | - | - | - |
| 1777877943 | 13.89° C | 95% | 1009.4 hPa | 8.38 mm | - | - | - |
| 1777877583 | 13.89° C | 95% | 1009.4 hPa | 8.38 mm | - | - | - |
| 1777876503 | 13.89° C | 95% | 1009.3 hPa | 8.38 mm | - | - | - |
| 1777875781 | 13.89° C | 95% | 1009.2 hPa | 7.87 mm | - | - | - |
| 1777875061 | 13.89° C | 95% | 1009.2 hPa | 4.06 mm | - | - | - |
| 1777874340 | 13.89° C | 95% | 1009.1 hPa | 1.78 mm | - | - | - |
| 1777872538 | 13.89° C | 95% | 1009 hPa | 0.51 mm | - | - | - |
| 1777872178 | 13.89° C | 95% | 1009 hPa | 0.25 mm | - | - | - |
| 1777871457 | 13.89° C | 95% | 1009 hPa | 0.25 mm | - | - | - |
| 1777850985 | 14.44° C | 91% | 1010.2 hPa | 0.51 mm | - | - | - |
| 1777850625 | 15° C | 91% | 1010.2 hPa | 0.51 mm | - | - | - |
| 1777850264 | 15° C | 91% | 1010.2 hPa | 0.51 mm | - | - | - |
| 1777849904 | 15° C | 90% | 1010.2 hPa | 0.51 mm | - | - | - |
| 1777849545 | 15.56° C | 89% | 1010.2 hPa | 0.51 mm | - | - | - |
| 1777849183 | 15.56° C | 88% | 1010.3 hPa | 0.51 mm | - | - | - |
| 1777848824 | 15.56° C | 88% | 1010.3 hPa | 0 mm | - | - | - |
| 1777848463 | 15.56° C | 87% | 1010.3 hPa | 0 mm | - | - | - |
* Rain latest hour (hover to see other rain measurements)
** Current wind speed in m/s (hover to see current wind gust speed)